TimeCDT,TemperatureF,Dew PointF,Humidity,Sea Level PressureIn,VisibilityMPH,Wind Direction,Wind SpeedMPH,Gust SpeedMPH,PrecipitationIn,Events,Conditions,WindDirDegrees,DateUTC
12:55 AM,43.0,39.9,89,29.72,5.0,North,6.9,-,N/A,,Clear,350,2013-03-16 05:55:00
1:55 AM,42.1,37.9,85,29.74,5.0,NNW,8.1,-,N/A,,Clear,340,2013-03-16 06:55:00
2:55 AM,41.0,37.0,86,29.76,5.0,NNW,12.7,-,N/A,,Clear,340,2013-03-16 07:55:00
3:55 AM,39.0,36.0,89,29.77,4.0,North,10.4,-,N/A,,Clear,350,2013-03-16 08:55:00
4:55 AM,37.9,35.1,89,29.80,3.0,North,12.7,19.6,N/A,,Mostly Cloudy,350,2013-03-16 09:55:00
5:55 AM,37.9,35.1,89,29.86,3.0,NNW,15.0,20.7,N/A,,Overcast,340,2013-03-16 10:55:00
6:55 AM,37.0,34.0,89,29.92,3.0,NNW,15.0,26.5,N/A,,Overcast,330,2013-03-16 11:55:00
7:55 AM,37.0,33.1,86,29.97,4.0,NNW,13.8,20.7,N/A,,Overcast,340,2013-03-16 12:55:00
8:20 AM,37.4,33.8,87,29.95,3.0,NNW,11.5,-,N/A,,Overcast,330,2013-03-16 13:20:00
8:55 AM,37.0,32.0,82,29.99,4.0,North,12.7,20.7,N/A,,Haze,350,2013-03-16 13:55:00
9:55 AM,37.0,32.0,82,30.00,5.0,North,15.0,-,N/A,,Haze,360,2013-03-16 14:55:00
10:07 AM,37.4,32.0,81,29.99,6.0,North,12.7,-,N/A,,Haze,360,2013-03-16 15:07:00
10:55 AM,37.0,30.9,79,30.03,8.0,North,11.5,-,N/A,,Overcast,350,2013-03-16 15:55:00
11:55 AM,37.0,30.0,76,30.05,10.0,North,12.7,-,N/A,,Overcast,350,2013-03-16 16:55:00
12:55 PM,37.0,28.9,73,30.09,10.0,NNW,13.8,18.4,N/A,,Overcast,340,2013-03-16 17:55:00
1:55 PM,37.9,28.9,70,30.08,10.0,North,12.7,-,N/A,,Overcast,360,2013-03-16 18:55:00
2:55 PM,37.9,28.0,68,30.07,10.0,North,12.7,-,N/A,,Overcast,360,2013-03-16 19:55:00
3:55 PM,37.0,28.0,70,30.07,10.0,North,11.5,-,N/A,,Overcast,360,2013-03-16 20:55:00
4:55 PM,37.0,27.0,67,30.07,10.0,North,8.1,-,N/A,,Overcast,360,2013-03-16 21:55:00
5:55 PM,37.0,27.0,67,30.09,10.0,North,9.2,-,N/A,,Overcast,360,2013-03-16 22:55:00
6:55 PM,36.0,27.0,70,30.09,10.0,NNE,8.1,-,N/A,,Mostly Cloudy,20,2013-03-16 23:55:00
7:55 PM,34.0,26.1,73,30.12,10.0,NNE,6.9,-,N/A,,Overcast,20,2013-03-17 00:55:00
8:41 PM,33.8,26.6,75,30.07,10.0,NNE,8.1,-,N/A,,Partly Cloudy,20,2013-03-17 01:41:00
8:55 PM,34.0,26.1,73,30.12,10.0,NNE,8.1,-,N/A,,Clear,20,2013-03-17 01:55:00
9:55 PM,33.1,26.1,75,30.13,10.0,North,9.2,-,N/A,,Clear,10,2013-03-17 02:55:00
10:55 PM,32.0,25.0,75,30.14,10.0,North,11.5,-,N/A,,Clear,10,2013-03-17 03:55:00
11:55 PM,32.0,25.0,75,30.15,10.0,North,15.0,-,N/A,,Scattered Clouds,10,2013-03-17 04:55:00